Home > Weather > Coeur d'Alene > Past weeks

Flag for USA Past Weather in Coeur d'Alene, Idaho, USA — Yesterday and Last 2 Weeks

Now
75 °F

Sunny.


Feels Like: 78 °F
Forecast: 60 / 90 °F
Wind: 9 mph from Northeast

Location: Coeur d'Alene Weather Reporting System

Current Time: Jul 27, 2016 at 10:26:56 AM

Latest Report: Jul 27, 2016 at 9:55 AM


Visibility: 10 mi

Pressure: 30.06 "Hg (27.88 "Hg at 655m altitude)

Humidity: 54%

Dew Point: 57 °F

Location of Coeur d'AleneLocation

Past Weather in Coeur d'Alene — Graph

°F

Coeur d'Alene Temperature Yesterday

Maximum temperature yesterday: 88 °F (at 5:15 PM)
Minimum temperature yesterday: 61 °F (at 3:55 AM)
Average temperature yesterday: 74 °F

High & Low Weather Summary for the Past Weeks

 TemperatureHumidityPressure
High91 °F (Jul 21, 4:35 PM)94% (Jul 23, 2:35 AM)30.18 "Hg (Jul 23, 2:35 AM)
Low48 °F (Jul 21, 5:15 AM)18% (Jul 21, 4:15 PM)29.85 "Hg (Jul 18, 12:55 PM)
Average68 °F55%30.02 "Hg
* Reported Jul 12 9:15 AM — Jul 27 9:15 AM, Coeur d'Alene, Weather by CustomWeather, © 2016

Note: Actual official high and low records may vary slightly from our data, if they occured in-between our weather recording intervals... More about our weather records

Advertising

Coeur d'Alene Weather History for the Previous 24 Hours

Scroll right to see more
 ConditionsComfort  
Time TempWeatherWind HumidityBarometerVisibility
9:15 AM
Wed, Jul 27
73 °FSunny.12 mph53%30.07 "Hg10 mi
8:55 AM72 °FSunny.12 mph57%30.07 "Hg10 mi
8:35 AM72 °FSunny.13 mph57%30.07 "Hg10 mi
8:15 AM70 °FSunny.15 mph60%30.07 "Hg10 mi
7:55 AM68 °FSunny.13 mph64%30.06 "Hg10 mi
7:35 AM66 °FSunny.13 mph68%30.06 "Hg10 mi
7:15 AM66 °FSunny.13 mph68%30.05 "Hg10 mi
6:55 AM64 °FSunny.15 mph68%30.05 "Hg10 mi
6:35 AM63 °FSunny.10 mph73%30.05 "Hg10 mi
6:15 AM63 °FClear.12 mph73%30.04 "Hg10 mi
5:55 AM63 °FClear.12 mph73%30.04 "Hg10 mi
5:35 AM61 °FClear.9 mph77%30.03 "Hg10 mi
4:55 AM63 °FClear.10 mph73%30.02 "Hg10 mi
4:35 AM63 °FClear.12 mph73%30.02 "Hg10 mi
4:15 AM61 °FClear.8 mph77%30.02 "Hg10 mi
3:55 AM61 °FClear.9 mph77%30.02 "Hg10 mi
3:35 AM61 °FClear.8 mph77%30.03 "Hg10 mi
3:15 AM63 °FClear.8 mph73%30.02 "Hg10 mi
2:55 AM63 °FClear.10 mph77%30.02 "Hg10 mi
2:35 AM63 °FClear.7 mph77%30.02 "Hg10 mi
2:15 AM63 °FClear.10 mph77%30.01 "Hg10 mi
1:55 AM64 °FClear.10 mph73%30.01 "Hg10 mi
1:35 AM64 °FClear.10 mph73%30.01 "Hg10 mi
1:15 AM66 °FClear.10 mph68%30.00 "Hg10 mi
12:55 AM68 °FClear.13 mph64%30.01 "Hg10 mi
12:35 AM68 °FClear.12 mph64%30.01 "Hg10 mi
12:15 AM68 °FPassing clouds.15 mph69%30.01 "Hg10 mi
11:55 PM
Tue, Jul 26
66 °FOvercast.9 mph73%30.02 "Hg10 mi
11:35 PM68 °FPassing clouds.6 mph69%30.02 "Hg10 mi
11:15 PM66 °FOvercast.9 mph73%30.02 "Hg10 mi
10:55 PM66 °FPassing clouds.12 mph83%30.02 "Hg10 mi
10:35 PM68 °FPassing clouds.15 mph78%30.02 "Hg10 mi
10:15 PM70 °FPassing clouds.13 mph69%30.03 "Hg10 mi
9:55 PM70 °FThunderstorms. Mostly cloudy.14 mph64%30.03 "Hg10 mi
9:35 PM75 °FThunderstorms. Partly cloudy.8 mph50%30.04 "Hg10 mi
8:55 PM75 °FThundershowers. Passing clouds.14 mph44%29.99 "Hg10 mi
8:35 PM75 °FPassing clouds.16 mph44%29.98 "Hg10 mi
8:15 PM79 °FSunny.15 mph39%29.97 "Hg10 mi
7:55 PM81 °FSunny.17 mph37%29.97 "Hg10 mi
7:35 PM82 °FSunny.8 mph35%29.96 "Hg10 mi
7:15 PM84 °FSunny.8 mph33%29.96 "Hg10 mi
6:55 PM86 °FSunny.8 mph31%29.96 "Hg10 mi
6:35 PM88 °FSunny.9 mph29%29.96 "Hg10 mi
6:15 PM88 °FSunny.12 mph29%29.96 "Hg10 mi
5:55 PM88 °FSunny.8 mph29%29.96 "Hg10 mi
5:35 PM88 °FSunny.9 mph29%29.96 "Hg10 mi
5:15 PM88 °FSunny.8 mph29%29.96 "Hg10 mi
4:55 PM86 °FSunny.7 mph31%29.96 "Hg10 mi
4:35 PM86 °FSunny.10 mph33%29.97 "Hg10 mi
4:15 PM86 °FSunny.13 mph33%29.98 "Hg10 mi
3:55 PM84 °FSunny.14 mph37%29.99 "Hg10 mi
3:35 PM84 °FSunny.15 mph37%30.00 "Hg10 mi
3:15 PM84 °FSunny.14 mph37%30.00 "Hg10 mi
2:55 PM82 °FSunny.17 mph42%30.01 "Hg10 mi
2:35 PM82 °FSunny.15 mph42%30.01 "Hg10 mi
1:55 PM81 °FPassing clouds.13 mph45%30.03 "Hg10 mi
1:35 PM75 °FPartly sunny.10 mph54%30.04 "Hg10 mi
1:15 PM75 °FScattered clouds.12 mph57%30.04 "Hg10 mi
12:55 PM72 °FPartly sunny.12 mph61%30.04 "Hg10 mi
12:35 PM73 °FBroken clouds.15 mph53%30.05 "Hg10 mi
12:15 PM81 °FThunderstorms. Scattered clouds.17 mph42%30.06 "Hg10 mi
11:55 AM82 °FThundershowers. Sunny.17 mph40%30.05 "Hg10 mi
11:35 AM81 °FSunny.16 mph42%30.04 "Hg10 mi
11:15 AM81 °FPassing clouds.17 mph42%30.04 "Hg10 mi
10:55 AM81 °FSunny.15 mph42%30.04 "Hg7 mi
10:35 AM79 °FSunny.10 mph48%30.05 "Hg10 mi
10:15 AM79 °FSunny.3 mph48%30.04 "Hg10 mi
Weather by CustomWeather, © 2016

See weather overviewHow to use our weather pages